#timestamp,LO_Frequency,Hit,StdDev 
1542582015.7,286047004.0,N
1542582035.6,286047004.0,N
1542582055.4,286047001.7,N
1542582075.3,286047003.1,N
1542582095.1,286047009.1,Y
1542582115.8,286047004.8,P
1542582135.7,286047004.6,N
1542582155.5,286047004.6,P
1542582175.4,286047005.4,Y
1542582195.2,286047001.5,P
1542582215.0,286047004.3,P
1542582215.9,286047004.3,P
1542582235.8,286047000.2,N
1542582255.6,286046998.6,N
1542582275.4,286046997.4,N
1542582295.3,286046996.2,N
1542582315.1,286046994.5,N
1542582335.9,286046995.7,N
1542582355.7,286046997.8,N
1542582375.5,286046997.1,N
1542582395.4,286046999.4,N
1542582415.2,286046997.0,N
1542582435.0,286046999.1,N
1542582435.9,286046999.1,N
1542582455.8,286046994.9,N
1542582475.6,286046997.5,N
1542582495.5,286046997.3,N
1542582515.3,286046996.5,N
1542582535.1,286046999.3,N
1542582555.9,286046999.6,N
1542582575.7,286047001.1,N
1542582595.5,286047001.2,N
1542582615.4,286047000.7,N
1542582635.2,286046998.4,N
1542582655.0,286046998.8,N
1542582656.0,286046998.8,N
1542582675.8,286046997.0,N
1542582695.6,286046997.9,N
1542582715.5,286046995.1,N
1542582735.3,286046995.2,N
1542582755.1,286046996.0,N
1542582775.9,286046993.9,N
1542582795.7,286046996.2,N
1542582815.5,286046998.0,N
1542582835.4,286046997.1,N
1542582855.2,286046998.9,N
1542582875.1,286046999.5,N
1542582876.0,286046999.5,N
1542582895.8,286046995.0,N
1542582915.6,286046996.1,N
1542582935.5,286046993.9,Y
1542582955.3,286046994.9,P
1542582975.1,286046995.4,P
1542582995.9,286046997.0,N
1542583015.7,286046999.5,N
1542583035.6,286047000.5,N
1542583055.4,286047004.0,N
1542583075.2,286047004.2,N
1542583095.1,286047006.0,N
1542583096.0,286047006.0,N
1542583115.8,286047004.5,N
1542583135.7,286047004.9,N
1542583155.5,286047008.4,N
1542583175.3,286047007.0,N
1542583195.2,286047002.9,N
1542583215.0,286047001.8,N
1542583215.9,286047001.8,N
1542583235.7,286047005.8,N
1542583255.6,286047005.7,N
1542583275.4,286047005.6,N
1542583295.3,286047006.0,N
1542583315.1,286047006.4,N
1542583316.0,286047006.4,N
1542583335.8,286047007.4,N
1542583355.7,286047005.0,N
1542583375.5,286047004.5,N
1542583395.3,286047006.7,N
1542583415.2,286047006.3,N
1542583435.0,286047007.4,N
1542583435.9,286047007.4,N
1542583455.8,286047005.8,N
1542583475.6,286047003.4,N
1542583495.4,286047000.5,N
1542583515.3,286046998.6,N
1542583535.1,286047002.1,N
1542583555.9,286047006.0,N
1542583575.7,286047006.4,N
1542583595.5,286047006.3,N
1542583615.4,286047005.8,N
1542583635.2,286047005.2,N
1542583655.0,286047005.8,N
1542583656.0,286047005.8,N
1542583675.8,286047004.6,N
1542583695.6,286047006.5,Y
1542583715.5,286047000.2,P
1542583735.3,286046999.8,N
1542583755.1,286046999.4,N
1542583775.9,286046999.1,N
1542583795.7,286046999.0,N
1542583815.6,286047000.9,N
1542583835.4,286047002.2,N
1542583855.2,286047003.6,N
1542583875.1,286047002.0,N
1542583876.0,286047002.0,N
1542583895.8,286047001.7,N
1542583915.7,286047001.9,N
1542583935.5,286047003.9,N
1542583955.3,286047004.2,N
1542583975.2,286047001.4,N
1542583995.9,286047003.9,N
1542584015.7,286047001.8,N
1542584035.6,286047006.9,Y
1542584055.4,286047005.5,P
1542584075.3,286047003.9,N
1542584095.1,286047007.2,P
1542584096.0,286047007.2,Y
1542584115.8,286047000.3,P
1542584135.7,286047004.2,N
1542584155.5,286047001.4,N
1542584175.3,286047002.6,N
1542584195.2,286047004.0,N
1542584215.0,286047004.2,N
1542584215.9,286047004.2,N
1542584235.8,286047003.3,N
1542584255.6,286047002.9,N
1542584275.4,286047004.3,Y
1542584295.3,286046997.3,P
1542584315.1,286046997.7,N
1542584335.8,286047001.2,N
1542584355.7,286047000.9,N
1542584375.5,286046998.7,N
1542584395.4,286047000.9,N
1542584415.2,286047002.3,N
1542584435.0,286047004.4,N
1542584435.9,286047004.4,N
1542584455.8,286046999.8,N
1542584475.6,286047002.4,N
1542584495.4,286047004.0,N
1542584515.3,286047005.4,N
1542584535.1,286047005.3,N
1542584555.9,286047005.6,N
1542584575.7,286047003.4,N
1542584595.5,286047004.0,N
1542584615.4,286047000.0,N
1542584635.2,286047001.9,N
1542584655.0,286047004.3,N
1542584655.9,286047004.3,N
1542584675.8,286047005.9,N
1542584695.6,286047002.6,N
1542584715.5,286047002.5,N
1542584735.3,286047000.3,N
1542584755.1,286046998.4,N
1542584775.9,286046999.6,N
1542584795.7,286046997.1,N
1542584815.5,286046999.0,N
1542584835.4,286046999.8,N
1542584855.2,286046998.4,N
1542584875.0,286046999.7,N
1542584876.0,286046999.7,N
1542584895.8,286047000.3,N
1542584915.6,286047000.9,N
1542584935.5,286047001.1,N
1542584955.3,286047001.2,N
1542584975.1,286047002.7,N
1542584995.9,286047001.4,N
1542585015.7,286047001.5,N
1542585035.5,286047002.5,N
1542585055.4,286047003.5,N
1542585075.2,286047006.2,N
1542585095.1,286047008.3,Y
1542585096.0,286047008.3,P
1542585115.8,286047006.7,N
1542585135.6,286047004.6,N
1542585155.5,286047005.2,N
1542585175.3,286047002.3,N
1542585195.1,286047001.0,N
1542585215.9,286046998.7,N
1542585235.7,286046999.4,N
1542585255.6,286046997.5,N
1542585275.4,286046997.1,N
1542585295.2,286046995.0,N
1542585315.1,286046997.2,N
1542585316.0,286046997.2,N
1542585335.8,286046996.5,N
1542585355.6,286046997.0,N
1542585375.5,286046998.3,N
1542585395.3,286046999.6,N
1542585415.2,286046998.9,N
1542585435.9,286046999.1,N
1542585455.7,286046998.6,N
1542585475.6,286046996.5,N
1542585495.4,286046997.0,N
1542585515.2,286047001.1,N
1542585535.1,286047000.4,N
1542585536.0,286047000.4,N
1542585555.8,286047000.1,N
1542585575.7,286047002.6,N
1542585595.5,286047003.5,N
